This is the latest recevied weather packets stored in our database for station/object FW0727. If no packets are shown the sender has not sent any weather packets the latest 10 day(s).
| Time | Temp. | Humidity | Pressure | Rain* | Wind** | Luminosity | Snow |
|---|---|---|---|---|---|---|---|
| 1777635030 | 11.67° C | 32% | 1023.3 hPa | - | - | - | - |
| 1777634678 | 11.67° C | 30% | 1023.4 hPa | - | - | - | - |
| 1777634325 | 11.11° C | 29% | 1023.4 hPa | - | - | - | - |
| 1777633646 | 11.67° C | 31% | 1023.5 hPa | - | - | - | - |
| 1777633293 | 11.67° C | 31% | 1023.5 hPa | - | - | - | - |
| 1777632940 | 11.67° C | 31% | 1023.5 hPa | - | - | - | - |
| 1777631907 | 11.67° C | 33% | 1023.6 hPa | - | - | - | - |
| 1777631228 | 11.11° C | 32% | 1023.6 hPa | - | - | - | - |
| 1777630547 | 11.67° C | 31% | 1023.7 hPa | - | - | - | - |
| 1777629868 | 11.67° C | 31% | 1023.8 hPa | - | - | - | - |
| 1777629515 | 11.67° C | 31% | 1023.8 hPa | - | - | - | - |
| 1777629163 | 11.67° C | 31% | 1023.8 hPa | - | - | - | - |
| 1777628811 | 11.67° C | 30% | 1023.8 hPa | - | - | - | - |
| 1777628459 | 12.22° C | 33% | 1024 hPa | - | - | - | - |
| 1777628107 | 10.56° C | 31% | 1024 hPa | - | - | - | - |
| 1777627755 | 10.56° C | 31% | 1024.1 hPa | - | - | - | - |
| 1777627403 | 10.56° C | 33% | 1024.1 hPa | - | - | - | - |
| 1777627051 | 10.56° C | 33% | 1024.2 hPa | - | - | - | - |
| 1777625380 | 11.11° C | 33% | 1024.3 hPa | - | - | - | - |
| 1777625028 | 11.11° C | 33% | 1024.3 hPa | - | - | - | - |
| 1777624676 | 10.56° C | 31% | 1024.4 hPa | - | - | - | - |
| 1777624323 | 11.11° C | 31% | 1024.4 hPa | - | - | - | - |
| 1777623972 | 11.11° C | 30% | 1024.4 hPa | - | - | - | - |
| 1777623619 | 12.22° C | 30% | 1024.3 hPa | - | - | - | - |
| 1777623267 | 11.67° C | 31% | 1024.3 hPa | - | - | - | - |
* Rain since midnight (hover to see other rain measurements)
** Current wind speed in m/s (hover to see current wind gust speed)